Date String (YYYY-MM-DD hh:mm:ss) UTC,Instrument flags,Ambient pressure (hPa),Sample flow (lpm),Bypass flow (lpm),Sample temperature (°C),Ambient temperature (°C),ASC tube jacket temperature (°C),LED temperature (°C),Box temperature (°C),Sample RH (%),Span deviation,Mass concentration (μg/m³),Mass concentration (μg/m³),Mass concentration (μg/m³)
DateTimeUTC,F1_M11,P_M11,Q1_M11,Q2_M11,T1_M11,T2_M11,T3_M11,T4_M11,T5_M11,U1_M11,ZSPAN_M11,X0_M11,X2_M11,X1_M11
2022-05-30 04:00:00,,0813.1,4.99,0.00,29.6,28.4,00.0,38.5,31.4,23.9,0000.0,0006.59,0002.46,0001.33
2022-05-30 04:01:00,,0813.1,5.00,0.00,29.6,28.4,00.0,38.5,31.4,23.8,0000.0,0006.71,0002.54,0001.39
2022-05-30 04:02:00,,0813.0,5.00,0.00,29.6,28.4,00.0,38.5,31.4,23.8,0000.0,0006.59,0002.54,0001.44
2022-05-30 04:03:00,,0813.0,5.00,0.00,29.6,28.4,00.0,38.5,31.4,23.9,0000.0,0006.79,0002.64,0001.49
2022-05-30 04:04:00,,0813.0,5.00,0.00,29.6,28.4,00.0,38.5,31.4,23.9,0000.0,0006.98,0002.80,0001.55
2022-05-30 04:05:00,,0813.1,4.99,0.00,29.6,28.4,00.0,38.5,31.4,23.9,0000.0,0008.56,0003.04,0001.61
2022-05-30 04:06:00,,0813.1,5.00,0.00,29.6,28.4,00.0,38.5,31.4,23.9,0000.0,0008.77,0003.08,0001.64
2022-05-30 04:07:00,,0813.1,5.01,0.00,29.6,28.4,00.0,38.5,31.4,23.9,0000.0,0009.30,0003.15,0001.67
2022-05-30 04:08:00,,0813.2,5.01,0.00,29.6,28.4,00.0,38.5,31.4,23.9,0000.0,0010.63,0003.21,0001.69
2022-05-30 04:09:00,,0813.2,5.00,0.00,29.6,28.4,00.0,38.5,31.4,23.8,0000.0,0011.41,0003.25,0001.70
2022-05-30 04:10:00,,0813.3,5.00,0.00,29.6,28.4,00.0,38.5,31.4,23.8,0000.0,0011.95,0003.27,0001.71
2022-05-30 04:11:00,,0813.3,5.00,0.00,29.6,28.4,00.0,38.5,31.4,23.7,0000.0,0011.56,0003.26,0001.70
2022-05-30 04:12:00,,0813.3,5.00,0.00,29.6,28.4,00.0,38.5,31.4,23.6,0000.0,0011.60,0003.29,0001.66
2022-05-30 04:13:00,,0813.3,4.99,0.00,29.6,28.4,00.0,38.5,31.4,23.3,0000.0,0011.65,0003.29,0001.62
2022-05-30 04:14:00,,0813.3,5.02,0.00,29.6,28.4,00.0,38.5,31.4,23.1,0000.0,0011.58,0003.21,0001.57
2022-05-30 04:15:00,,0813.3,4.99,0.00,29.6,28.4,00.0,38.5,31.4,23.0,0000.0,0011.56,0003.08,0001.51
2022-05-30 04:16:00,,0813.3,4.99,0.00,29.6,28.4,00.0,38.5,31.4,22.9,0000.0,0010.13,0002.85,0001.44
2022-05-30 04:17:00,,0813.3,5.01,0.00,29.6,28.3,00.0,38.5,31.4,22.8,0000.0,0009.71,0002.67,0001.39
2022-05-30 04:18:00,,0813.3,5.00,0.00,29.6,28.3,00.0,38.5,31.4,22.7,0000.0,0009.14,0002.54,0001.34
2022-05-30 04:19:00,,0813.3,5.00,0.00,29.6,28.3,00.0,38.5,31.4,22.6,0000.0,0007.74,0002.39,0001.29
2022-05-30 04:20:00,,0813.3,5.00,0.00,29.5,28.3,00.0,38.5,31.3,22.6,0000.0,0006.82,0002.32,0001.27
2022-05-30 04:21:00,,0813.3,5.01,0.00,29.5,28.3,00.0,38.5,31.3,22.4,0000.0,0005.50,0002.23,0001.25
2022-05-30 04:22:00,,0813.3,5.01,0.00,29.5,28.3,00.0,38.5,31.3,22.2,0000.0,0005.21,0002.13,0001.22
2022-05-30 04:23:00,,0813.3,5.00,0.00,29.5,28.3,00.0,38.5,31.3,22.1,0000.0,0004.88,0001.98,0001.17
2022-05-30 04:24:00,,0813.3,4.99,0.00,29.5,28.3,00.0,38.5,31.3,22.2,0000.0,0004.62,0001.91,0001.15
2022-05-30 04:25:00,,0813.3,5.00,0.00,29.5,28.3,00.0,38.5,31.3,22.2,0000.0,0004.34,0001.86,0001.12
2022-05-30 04:26:00,,0813.2,5.01,0.00,29.5,28.3,00.0,38.5,31.3,22.3,0000.0,0003.82,0001.82,0001.10
2022-05-30 04:27:00,,0813.2,5.00,0.00,29.5,28.3,00.0,38.5,31.3,22.4,0000.0,0003.82,0001.82,0001.09
2022-05-30 04:28:00,,0813.2,4.99,0.00,29.5,28.3,00.0,38.5,31.3,22.4,0000.0,0003.99,0001.90,0001.10
2022-05-30 04:29:00,,0813.2,5.00,0.00,29.5,28.3,00.0,38.5,31.3,22.7,0000.0,0003.96,0001.89,0001.09
2022-05-30 04:30:00,,0813.2,5.01,0.00,29.5,28.3,00.0,38.5,31.3,23.0,0000.0,0003.94,0001.87,0001.10
2022-05-30 04:31:00,,0813.2,5.00,0.00,29.5,28.3,00.0,38.5,31.3,22.9,0000.0,0004.01,0001.82,0001.08
2022-05-30 04:32:00,,0813.2,5.00,0.00,29.5,28.3,00.0,38.5,31.3,23.1,0000.0,0003.79,0001.80,0001.05
2022-05-30 04:33:00,,0813.1,4.99,0.00,29.5,28.3,00.0,38.5,31.3,23.6,0000.0,0003.79,0001.81,0001.06
2022-05-30 04:34:00,,0813.1,5.00,0.00,29.5,28.3,00.0,38.5,31.3,23.7,0000.0,0003.83,0001.81,0001.06
2022-05-30 04:35:00,,0813.1,5.00,0.00,29.5,28.3,00.0,38.5,31.3,23.9,0000.0,0003.76,0001.77,0001.05
2022-05-30 04:36:00,,0813.1,5.01,0.00,29.5,28.3,00.0,38.5,31.3,24.0,0000.0,0003.73,0001.77,0001.05
2022-05-30 04:37:00,,0813.1,5.00,0.00,29.5,28.3,00.0,38.5,31.3,23.8,0000.0,0003.67,0001.75,0001.05
2022-05-30 04:38:00,,0813.1,4.99,0.00,29.5,28.3,00.0,38.5,31.3,23.4,0000.0,0003.73,0001.76,0001.05
2022-05-30 04:39:00,,0813.1,5.00,0.00,29.5,28.3,00.0,38.5,31.3,23.2,0000.0,0003.55,0001.68,0001.04
2022-05-30 04:40:00,,0813.1,5.00,0.00,29.5,28.3,00.0,38.5,31.3,23.2,0000.0,0004.58,0001.67,0001.03
2022-05-30 04:41:00,,0813.2,4.99,0.00,29.5,28.3,00.0,38.5,31.3,23.1,0000.0,0005.41,0001.74,0001.02
2022-05-30 04:42:00,,0813.1,5.01,0.00,29.5,28.3,00.0,38.5,31.3,23.0,0000.0,0005.10,0001.72,0001.00
2022-05-30 04:43:00,,0813.1,4.99,0.00,29.5,28.3,00.0,38.5,31.3,22.7,0000.0,0005.00,0001.74,0001.01
2022-05-30 04:44:00,,0813.2,4.99,0.00,29.5,28.3,00.0,38.4,31.3,22.3,0000.0,0005.14,0001.77,0001.01
2022-05-30 04:45:00,,0813.2,5.02,0.00,29.5,28.3,00.0,38.4,31.3,21.7,0000.0,0005.61,0001.76,0001.00
2022-05-30 04:46:00,,0813.2,5.00,0.00,29.5,28.3,00.0,38.4,31.3,21.8,0000.0,0005.85,0001.79,0001.00
2022-05-30 04:47:00,,0813.2,5.00,0.00,29.5,28.3,00.0,38.4,31.3,21.9,0000.0,0005.93,0001.83,0001.01
2022-05-30 04:48:00,,0813.2,5.00,0.00,29.5,28.3,00.0,38.4,31.3,21.8,0000.0,0006.05,0001.86,0001.02
2022-05-30 04:49:00,,0813.3,5.02,0.00,29.5,28.3,00.0,38.4,31.3,21.9,0000.0,0005.98,0001.83,0001.02
2022-05-30 04:50:00,,0813.3,5.01,0.00,29.5,28.3,00.0,38.4,31.3,21.9,0000.0,0006.43,0001.85,0001.02
2022-05-30 04:51:00,,0813.3,4.99,0.00,29.5,28.3,00.0,38.4,31.3,22.0,0000.0,0006.65,0001.83,0001.02
2022-05-30 04:52:00,,0813.3,4.99,0.00,29.5,28.3,00.0,38.4,31.3,22.2,0000.0,0005.64,0001.83,0001.03
2022-05-30 04:53:00,,0813.4,5.00,0.00,29.5,28.3,00.0,38.4,31.3,22.2,0000.0,0005.56,0001.84,0001.04
2022-05-30 04:54:00,,0813.4,5.00,0.00,29.4,28.3,00.0,38.4,31.2,22.4,0000.0,0005.50,0001.83,0001.04
2022-05-30 04:55:00,,0813.4,4.99,0.00,29.4,28.2,00.0,38.4,31.2,23.0,0000.0,0005.70,0001.83,0001.04
2022-05-30 04:56:00,,0813.4,5.00,0.00,29.4,28.2,00.0,38.4,31.2,23.6,0000.0,0005.48,0001.82,0001.04
2022-05-30 04:57:00,,0813.3,5.01,0.00,29.4,28.2,00.0,38.4,31.2,23.6,0000.0,0004.94,0001.81,0001.05
2022-05-30 04:58:00,,0813.3,5.01,0.00,29.4,28.2,00.0,38.4,31.1,23.6,0000.0,0005.28,0001.85,0001.06
2022-05-30 04:59:00,,0813.3,4.99,0.00,29.4,28.2,00.0,38.4,31.1,23.8,0000.0,0005.83,0001.84,0001.06
